Lid_Strength_Index
3 3 2 1 2 3 3 4 3 3 4 4 4 3 3 3 2 2 2 2 1 0 1 1 2 2 2 3 3 3 4 4 4 5 5 4 4 4 4 4 4 4 4
1 2 2 2 2 3 3 4 4 4 4 4 4 4 4 4 4 4 4 4 1 0 1 1 1 2 2 3 3 4 4 4 4 4 5 5 6 4 5 4 5 5 5
1 2 3 3 2 2 3 4 4 5 5 4 5 5 5 5 5 5 5 5 3 2 1 1 1 2 2 2 3 3 4 4 4 4 4 5 5 6 4 5 5 6 5
0 2 3 3 2 2 2 4 4 5 6 6 6 6 6 6 6 6 6 6 6 4 3 1 1 1 2 2 2 3 3 3 3 4 4 5 5 5 5 4 5 6 6
0 2 2 2 2 2 3 3 5 5 6 6 7 7 7 7 7 6 6 6 6 6 6 3 3 3 1 2 2 2 3 3 3 4 4 5 6 5 4 4 5 5 6
0 1 2 2 2 3 3 3 4 5 5 5 7 8 9 9 9 9 8 7 7 7 7 6 6 6 4 2 2 2 2 2 3 4 4 5 5 5 5 4 4 5 6
0 1 1 2 1 2 2 3 4 6 7 8 8 9 10 9 10 10 10 10 8 7 7 7 7 8 7 2 1 1 1 2 2 3 4 4 5 5 5 4 5 6 6
1 1 1 1 2 1 2 3 4 6 7 8 8 10 10 10 10 9 10 10 10 9 8 8 8 8 8 8 6 1 1 1 1 2 3 4 4 4 5 5 5 6 6
1 1 1 1 1 1 1 2 3 5 6 7 8 8 11 12 12 11 10 10 10 11 10 10 9 9 9 9 6 5 2 1 1 2 2 3 4 4 4 4 5 5 6
2 1 1 1 2 2 2 2 3 3 4 6 7 7 9 10 11 12 11 11 11 11 11 10 10 10 9 9 8 7 6 2 2 2 2 3 3 4 4 4 5 5 5
2 2 2 2 2 2 3 3 3 4 4 5 6 8 7 9 9 11 9 11 12 11 10 11 10 11 10 10 8 7 6 4 3 3 2 3 3 4 4 4 4 4 5
3 2 2 2 2 2 3 3 4 4 4 4 5 5 6 7 7 8 9 8 9 9 10 9 10 10 10 10 9 8 7 5 4 3 2 2 3 4 4 4 4 4 5
3 3 3 2 2 2 2 2 3 4 4 5 5 5 5 4 5 7 7 6 8 9 10 10 9 9 10 10 10 10 8 6 4 4 3 2 3 4 5 4 5 5 5
2 2 2 2 2 2 2 2 2 3 4 4 5 5 5 6 5 5 5 6 7 7 10 8 10 9 10 10 10 10 9 7 6 4 3 3 4 4 4 5 5 5 5
1 1 2 2 2 2 2 2 2 3 3 4 4 5 5 5 6 5 5 5 6 7 6 5 10 11 10 10 10 10 10 9 7 5 4 4 5 5 5 5 6 5 5
1 1 1 1 2 2 2 3 2 3 3 3 4 4 5 5 5 6 6 5 6 7 8 5 5 9 11 11 11 12 11 11 9 8 7 6 6 6 6 6 6 6 6
1 1 1 2 2 2 2 2 2 2 3 3 3 4 4 4 4 5 5 6 6 6 8 6 6 5 12 12 11 12 12 12 12 10 9 7 6 7 7 7 7 7 7
3 1 1 1 2 2 2 3 2 2 3 3 3 3 3 3 4 4 4 6 6 5 7 8 6 6 8 11 10 12 13 12 13 11 10 8 7 8 7 8 8 8 9
6 6 7 8 8 8 8 8 7 7 7 6 5 4 3 3 4 4 4 4 5 5 5 6 6 5 6 13 13 14 14 13 13 12 10 9 8 8 8 9 9 9 10
9 8 8 9 10 11 11 11 9 9 9 8 8 8 8 9 10 9 9 7 5 5 6 7 7 7 9 15 14 15 16 15 15 14 11 10 9 9 9 9 10 10 10
10 10 10 11 11 11 12 12 12 11 11 11 10 11 10 13 14 11 10 10 10 10 9 7 8 8 12 16 15 14 13 15 16 14 13 12 11 11 11 10 11 11 10
12 12 12 12 13 13 12 13 13 12 12 13 13 13 13 13 12 12 12 11 10 11 11 11 10 10 10 13 14 14 15 16 17 16 14 13 12 13 12 12 11 11 10
13 14 14 14 14 13 12 12 13 13 13 13 13 13 13 13 13 13 12 12 12 11 10 11 12 12 11 12 13 14 14 15 15 16 14 16 15 15 13 13 11 11 10
14 15 15 14 15 14 12 12 12 13 13 13 13 13 13 11 11 11 11 11 11 11 11 11 12 12 11 11 12 12 13 14 16 16 14 17 16 17 16 14 11 11 11
16 16 15 16 16 15 13 12 12 12 12 12 12 11 11 11 10 9 10 11 11 11 10 10 10 10 10 9 9 13 13 14 18 17 16 18 18 20 18 15 13 11 11
16 15 15 15 15 14 12 11 11 12 12 12 11 11 11 11 10 9 11 11 12 11 11 11 11 11 11 11 10 10 12 13 17 17 16 18 18 18 20 19 16 13 12